Date String (YYYY-MM-DD hh:mm:ss) UTC,Instrument flags,absolute air pressure of the measurement (hPa),sample flow rate (lpm),inlet stack bypass flow (lpm),air temperature of the measurement (°C),ambient temperature measured by the external sensor (°C),aerosol sample conditioner tube jacket temperature (°C),OPC LED temperature (°C),internal box temperature (°C),relative humidity of the measurement (%),span deviation,mass concentration of particles derived from Lorenz-Mie calculation of OPC scattering (μg/m³),mass concentration of particles derived from Lorenz-Mie calculation of OPC scattering (μg/m³),mass concentration of particles derived from Lorenz-Mie calculation of OPC scattering (μg/m³)
DateTimeUTC,F1_M11,P_M11,Q1_M11,Q2_M11,T1_M11,T2_M11,T3_M11,T4_M11,T5_M11,U1_M11,ZSPAN_M11,X0_M11,X2_M11,X1_M11
2024-06-03 09:00:00,SystemResetWarning,0825.3,4.99,000.00,031.2,030.5,000.0,039.7,033.0,015.3,0000.0,0024.00,0005.83,0003.97
2024-06-03 09:01:00,SystemResetWarning,0825.3,4.99,000.00,031.2,030.5,000.0,039.6,032.9,015.2,0000.0,0024.00,0005.79,0003.96
2024-06-03 09:02:00,SystemResetWarning,0825.3,4.99,000.00,031.2,030.5,000.0,039.7,032.9,015.2,0000.0,0024.88,0005.73,0003.93
2024-06-03 09:03:00,SystemResetWarning,0825.3,4.99,000.00,031.2,030.4,000.0,039.7,032.9,015.2,0000.0,0023.89,0005.56,0003.89
2024-06-03 09:04:00,SystemResetWarning,0825.3,5.01,000.00,031.2,030.4,000.0,039.6,032.9,015.2,0000.0,0022.13,0005.38,0003.84
2024-06-03 09:05:00,SystemResetWarning,0825.3,5.01,000.00,031.2,030.4,000.0,039.7,032.9,015.2,0000.0,0019.87,0005.22,0003.80
2024-06-03 09:06:00,SystemResetWarning,0825.3,4.99,000.00,031.2,030.4,000.0,039.7,032.9,015.4,0000.0,0019.76,0005.19,0003.77
2024-06-03 09:07:00,SystemResetWarning,0825.3,5.00,000.00,031.2,030.4,000.0,039.7,032.9,015.4,0000.0,0019.48,0005.19,0003.73
2024-06-03 09:08:00,SystemResetWarning,0825.2,5.00,000.00,031.2,030.4,000.0,039.6,032.9,015.4,0000.0,0018.91,0005.15,0003.71
2024-06-03 09:09:00,SystemResetWarning,0825.3,5.00,000.00,031.2,030.4,000.0,039.6,032.8,015.6,0000.0,0020.34,0005.18,0003.70
2024-06-03 09:10:00,SystemResetWarning,0825.2,4.99,000.00,031.2,030.4,000.0,039.6,032.8,015.6,0000.0,0021.49,0005.22,0003.70
2024-06-03 09:11:00,SystemResetWarning,0825.2,5.00,000.00,031.2,030.4,000.0,039.6,032.9,015.8,0000.0,0020.98,0005.24,0003.71
2024-06-03 09:12:00,SystemResetWarning,0825.3,5.00,000.00,031.2,030.4,000.0,039.6,032.9,015.7,0000.0,0021.88,0005.34,0003.73
2024-06-03 09:13:00,SystemResetWarning,0825.2,5.01,000.00,031.2,030.4,000.0,039.6,032.9,015.5,0000.0,0021.54,0005.41,0003.74
2024-06-03 09:14:00,SystemResetWarning,0825.2,5.01,000.00,031.2,030.4,000.0,039.6,032.9,015.3,0000.0,0021.97,0005.44,0003.75
2024-06-03 09:15:00,SystemResetWarning,0825.2,4.99,000.00,031.2,030.4,000.0,039.6,032.9,015.2,0000.0,0022.25,0005.45,0003.76
2024-06-03 09:16:00,SystemResetWarning,0825.2,4.98,000.00,031.2,030.4,000.0,039.6,032.9,015.1,0000.0,0021.99,0005.42,0003.77
2024-06-03 09:17:00,SystemResetWarning,0825.2,5.00,000.00,031.2,030.4,000.0,039.6,032.8,015.1,0000.0,0020.88,0005.43,0003.76
2024-06-03 09:18:00,SystemResetWarning,0825.2,5.01,000.00,031.2,030.4,000.0,039.6,032.8,014.9,0000.0,0020.91,0005.44,0003.76
2024-06-03 09:19:00,SystemResetWarning,0825.2,5.00,000.00,031.2,030.4,000.0,039.6,032.8,014.8,0000.0,0019.84,0005.39,0003.75
2024-06-03 09:20:00,SystemResetWarning,0825.2,4.99,000.00,031.2,030.4,000.0,039.6,032.9,014.9,0000.0,0018.66,0005.29,0003.73
2024-06-03 09:21:00,SystemResetWarning,0825.2,4.99,000.00,031.2,030.4,000.0,039.6,032.9,015.0,0000.0,0016.69,0005.24,0003.70
2024-06-03 09:22:00,SystemResetWarning,0825.2,5.00,000.00,031.2,030.4,000.0,039.6,032.9,014.9,0000.0,0016.25,0005.19,0003.67
2024-06-03 09:23:00,SystemResetWarning,0825.3,5.00,000.00,031.2,030.4,000.0,039.6,032.9,014.9,0000.0,0015.16,0005.06,0003.63
2024-06-03 09:24:00,SystemResetWarning,0825.2,5.01,000.00,031.2,030.4,000.0,039.6,032.9,014.9,0000.0,0013.81,0004.93,0003.61
2024-06-03 09:25:00,SystemResetWarning,0825.2,5.01,000.00,031.2,030.4,000.0,039.6,032.9,014.8,0000.0,0013.09,0004.85,0003.57
2024-06-03 09:26:00,SystemResetWarning,0825.1,5.00,000.00,031.2,030.4,000.0,039.6,032.9,014.7,0000.0,0012.67,0004.78,0003.56
2024-06-03 09:27:00,SystemResetWarning,0825.1,5.01,000.00,031.2,030.4,000.0,039.6,032.9,014.7,0000.0,0012.50,0004.72,0003.54
2024-06-03 09:28:00,SystemResetWarning,0825.1,5.00,000.00,031.2,030.4,000.0,039.6,032.9,014.8,0000.0,0013.22,0004.64,0003.52
2024-06-03 09:29:00,SystemResetWarning,0825.1,5.00,000.00,031.2,030.4,000.0,039.6,032.9,014.8,0000.0,0012.53,0004.52,0003.50
2024-06-03 09:30:00,SystemResetWarning,0825.1,5.00,000.00,031.2,030.4,000.0,039.6,032.8,014.6,0000.0,0012.29,0004.50,0003.47
2024-06-03 09:31:00,SystemResetWarning,0825.1,4.99,000.00,031.2,030.4,000.0,039.6,032.8,014.7,0000.0,0013.18,0004.50,0003.46
2024-06-03 09:32:00,SystemResetWarning,0825.1,4.99,000.00,031.2,030.4,000.0,039.6,032.9,014.7,0000.0,0013.81,0004.49,0003.45
2024-06-03 09:33:00,SystemResetWarning,0825.1,4.99,000.00,031.2,030.4,000.0,039.6,032.9,014.7,0000.0,0013.54,0004.40,0003.44
2024-06-03 09:34:00,SystemResetWarning,0825.1,5.01,000.00,031.2,030.4,000.0,039.6,032.8,014.7,0000.0,0013.38,0004.39,0003.44
2024-06-03 09:35:00,SystemResetWarning,0825.1,5.01,000.00,031.2,030.4,000.0,039.6,032.8,014.6,0000.0,0013.18,0004.39,0003.44
2024-06-03 09:36:00,SystemResetWarning,0825.1,5.00,000.00,031.2,030.4,000.0,039.6,032.8,014.6,0000.0,0013.14,0004.42,0003.45
2024-06-03 09:37:00,SystemResetWarning,0825.1,5.00,000.00,031.2,030.4,000.0,039.6,032.8,014.6,0000.0,0012.87,0004.43,0003.44
2024-06-03 09:38:00,SystemResetWarning,0825.1,5.00,000.00,031.2,030.4,000.0,039.6,032.9,014.5,0000.0,0013.15,0004.47,0003.44
2024-06-03 09:39:00,SystemResetWarning,0825.1,4.99,000.00,031.2,030.4,000.0,039.6,032.8,014.6,0000.0,0012.78,0004.50,0003.45
2024-06-03 09:40:00,SystemResetWarning,0825.1,5.00,000.00,031.2,030.4,000.0,039.6,032.9,014.6,0000.0,0013.48,0004.51,0003.46
2024-06-03 09:41:00,SystemResetWarning,0825.1,5.00,000.00,031.2,030.4,000.0,039.6,032.9,014.7,0000.0,0013.98,0004.54,0003.49
2024-06-03 09:42:00,SystemResetWarning,0825.1,4.99,000.00,031.2,030.4,000.0,039.6,032.8,014.6,0000.0,0013.51,0004.57,0003.51
2024-06-03 09:43:00,SystemResetWarning,0825.1,5.01,000.00,031.2,030.4,000.0,039.6,032.8,014.9,0000.0,0012.72,0004.57,0003.53
2024-06-03 09:44:00,SystemResetWarning,0825.0,5.01,000.00,031.2,030.4,000.0,039.6,032.9,015.1,0000.0,0013.14,0004.64,0003.54
2024-06-03 09:45:00,SystemResetWarning,0825.0,5.00,000.00,031.2,030.4,000.0,039.6,032.9,015.1,0000.0,0013.91,0004.73,0003.56
2024-06-03 09:46:00,SystemResetWarning,0825.0,5.00,000.00,031.2,030.4,000.0,039.6,032.8,015.0,0000.0,0013.99,0004.76,0003.58
2024-06-03 09:47:00,SystemResetWarning,0824.9,5.00,000.00,031.2,030.4,000.0,039.6,032.9,015.1,0000.0,0015.00,0004.81,0003.59
2024-06-03 09:48:00,SystemResetWarning,0824.9,5.00,000.00,031.2,030.4,000.0,039.6,032.9,015.1,0000.0,0015.51,0004.88,0003.62
2024-06-03 09:49:00,SystemResetWarning,0824.9,5.00,000.00,031.2,030.4,000.0,039.6,032.9,015.1,0000.0,0015.64,0004.90,0003.63
2024-06-03 09:50:00,SystemResetWarning,0824.9,5.00,000.00,031.2,030.4,000.0,039.6,032.8,015.1,0000.0,0015.57,0004.95,0003.65
2024-06-03 09:51:00,SystemResetWarning,0824.9,5.00,000.00,031.2,030.4,000.0,039.6,032.8,015.1,0000.0,0015.77,0005.06,0003.66
2024-06-03 09:52:00,SystemResetWarning,0824.9,4.99,000.00,031.2,030.4,000.0,039.6,032.9,015.1,0000.0,0015.45,0005.14,0003.69
2024-06-03 09:53:00,SystemResetWarning,0824.9,5.01,000.00,031.2,030.4,000.0,039.6,032.9,015.2,0000.0,0016.77,0005.23,0003.71
2024-06-03 09:54:00,SystemResetWarning,0825.0,5.01,000.00,031.2,030.4,000.0,039.6,032.9,015.2,0000.0,0017.31,0005.30,0003.73
2024-06-03 09:55:00,SystemResetWarning,0824.9,5.01,000.00,031.2,030.4,000.0,039.6,032.9,015.4,0000.0,0017.74,0005.33,0003.74
2024-06-03 09:56:00,SystemResetWarning,0824.9,5.00,000.00,031.2,030.4,000.0,039.6,032.9,015.4,0000.0,0019.11,0005.35,0003.75
2024-06-03 09:57:00,SystemResetWarning,0824.9,5.00,000.00,031.2,030.4,000.0,039.6,032.9,015.2,0000.0,0020.48,0005.44,0003.77
2024-06-03 09:58:00,SystemResetWarning,0824.9,5.00,000.00,031.2,030.4,000.0,039.6,032.9,014.8,0000.0,0020.13,0005.45,0003.77
2024-06-03 09:59:00,SystemResetWarning,0824.9,5.00,000.00,031.2,030.4,000.0,039.6,032.9,014.6,0000.0,0020.62,0005.41,0003.78
